Year,Month,Day,Hour,Minute,Value (Times are PST for temperature in C)
2015,07,05,00,00,14.50
2015,07,05,00,01,14.50
2015,07,05,00,02,14.50
2015,07,05,00,03,14.50
2015,07,05,00,04,14.50
2015,07,05,00,05,14.50
2015,07,05,00,06,14.60
2015,07,05,00,07,14.60
2015,07,05,00,08,14.60
2015,07,05,00,09,14.80
2015,07,05,00,10,14.80
2015,07,05,00,11,14.80
2015,07,05,00,12,14.90
2015,07,05,00,13,14.90
2015,07,05,00,14,14.90
2015,07,05,00,15,14.90
2015,07,05,00,16,14.90
2015,07,05,00,17,14.90
2015,07,05,00,18,14.90
2015,07,05,00,19,14.90
2015,07,05,00,20,14.90
2015,07,05,00,21,14.90
2015,07,05,00,22,14.90
2015,07,05,00,23,14.90
2015,07,05,00,24,14.90
2015,07,05,00,25,14.90
2015,07,05,00,26,14.90
2015,07,05,00,27,14.90
2015,07,05,00,28,14.90
2015,07,05,00,29,14.90
2015,07,05,00,30,14.90
2015,07,05,00,31,14.90
2015,07,05,00,32,14.90
2015,07,05,00,33,14.90
2015,07,05,00,34,14.90
2015,07,05,00,35,14.90
2015,07,05,00,36,14.90
2015,07,05,00,37,14.90
2015,07,05,00,38,14.90
2015,07,05,00,39,14.80
2015,07,05,00,40,14.80
2015,07,05,00,41,14.70
2015,07,05,00,42,14.60
2015,07,05,00,43,14.60
2015,07,05,00,44,14.60
2015,07,05,00,45,14.50
2015,07,05,00,46,14.50
2015,07,05,00,47,14.50
2015,07,05,00,48,14.50
2015,07,05,00,49,14.50
2015,07,05,00,50,14.60
2015,07,05,00,51,14.60
2015,07,05,00,52,14.60
2015,07,05,00,53,14.60
2015,07,05,00,54,14.60
2015,07,05,00,55,14.60
2015,07,05,00,56,14.60
2015,07,05,00,57,14.60
2015,07,05,00,58,14.60
2015,07,05,00,59,14.60
2015,07,05,01,00,14.60
2015,07,05,01,01,14.60
2015,07,05,01,02,14.60
2015,07,05,01,03,14.50
2015,07,05,01,04,14.50
2015,07,05,01,05,14.60
2015,07,05,01,06,14.60
2015,07,05,01,07,14.60
2015,07,05,01,08,14.60
2015,07,05,01,09,14.70
2015,07,05,01,10,14.70
2015,07,05,01,11,14.60
2015,07,05,01,12,14.60
2015,07,05,01,13,14.60
2015,07,05,01,14,14.60
2015,07,05,01,15,14.60
2015,07,05,01,16,14.50
2015,07,05,01,17,14.50
2015,07,05,01,18,14.50
2015,07,05,01,19,14.50
2015,07,05,01,20,14.50
2015,07,05,01,21,14.50
2015,07,05,01,22,14.50
2015,07,05,01,23,14.50
2015,07,05,01,24,14.50
2015,07,05,01,25,14.50
2015,07,05,01,26,14.50
2015,07,05,01,27,14.50
2015,07,05,01,28,14.50
2015,07,05,01,29,14.60
2015,07,05,01,30,14.60
2015,07,05,01,31,14.70
2015,07,05,01,32,14.70
2015,07,05,01,33,14.70
2015,07,05,01,34,14.80
2015,07,05,01,35,14.80
2015,07,05,01,36,14.80
2015,07,05,01,37,14.70
2015,07,05,01,38,14.70
2015,07,05,01,39,14.70
2015,07,05,01,40,14.70
2015,07,05,01,41,14.60
2015,07,05,01,42,14.60
2015,07,05,01,43,14.50
2015,07,05,01,44,14.50
2015,07,05,01,45,14.50
2015,07,05,01,46,14.40
2015,07,05,01,47,14.40
2015,07,05,01,48,14.40
2015,07,05,01,49,14.40
2015,07,05,01,50,14.50
2015,07,05,01,51,14.50
2015,07,05,01,52,14.50
2015,07,05,01,53,14.50
2015,07,05,01,54,14.50
2015,07,05,01,55,14.50
2015,07,05,01,56,14.50
2015,07,05,01,57,14.50
2015,07,05,01,58,14.50
2015,07,05,01,59,14.50
2015,07,05,02,00,14.50
2015,07,05,02,01,14.50
2015,07,05,02,02,14.50
2015,07,05,02,03,14.50
2015,07,05,02,04,14.50
2015,07,05,02,05,14.50
2015,07,05,02,06,14.50
2015,07,05,02,07,14.50
2015,07,05,02,08,14.50
2015,07,05,02,09,14.50
2015,07,05,02,10,14.50
2015,07,05,02,11,14.60
2015,07,05,02,12,14.60
2015,07,05,02,13,14.60
2015,07,05,02,14,14.60
2015,07,05,02,15,14.60
2015,07,05,02,16,14.60
2015,07,05,02,17,14.60
2015,07,05,02,18,14.60
2015,07,05,02,19,14.60
2015,07,05,02,20,14.60
2015,07,05,02,21,14.60
2015,07,05,02,22,14.60
2015,07,05,02,23,14.50
2015,07,05,02,24,14.50
2015,07,05,02,25,14.50
2015,07,05,02,26,14.50
2015,07,05,02,27,14.50
2015,07,05,02,28,14.50
2015,07,05,02,29,14.50
2015,07,05,02,30,14.50
2015,07,05,02,31,14.50
2015,07,05,02,32,14.40
2015,07,05,02,33,14.40
2015,07,05,02,34,14.40
2015,07,05,02,35,14.40
2015,07,05,02,36,14.40
2015,07,05,02,37,14.40
2015,07,05,02,38,14.40
2015,07,05,02,39,14.40
2015,07,05,02,40,14.40
2015,07,05,02,41,14.40
2015,07,05,02,42,14.40
2015,07,05,02,43,14.50
2015,07,05,02,44,14.50
2015,07,05,02,45,14.60
2015,07,05,02,46,14.60
2015,07,05,02,47,14.60
2015,07,05,02,48,14.70
2015,07,05,02,49,14.70
2015,07,05,02,50,14.70
2015,07,05,02,51,14.70
2015,07,05,02,52,14.70
2015,07,05,02,53,14.80
2015,07,05,02,54,14.80
2015,07,05,02,55,14.80
2015,07,05,02,56,14.80
2015,07,05,02,57,14.80
2015,07,05,02,58,14.80
2015,07,05,02,59,14.80
2015,07,05,03,00,14.80
2015,07,05,03,01,14.80
2015,07,05,03,02,14.80
2015,07,05,03,03,14.80
2015,07,05,03,04,14.80
2015,07,05,03,05,14.80
2015,07,05,03,06,14.80
2015,07,05,03,07,14.80
2015,07,05,03,08,14.80
2015,07,05,03,09,14.80
2015,07,05,03,10,14.80
2015,07,05,03,11,14.80
2015,07,05,03,12,14.80
2015,07,05,03,13,14.80
2015,07,05,03,14,14.80
2015,07,05,03,15,14.80
2015,07,05,03,16,14.80
2015,07,05,03,17,14.80
2015,07,05,03,18,14.70
2015,07,05,03,19,14.60
2015,07,05,03,20,14.50
2015,07,05,03,21,14.50
2015,07,05,03,22,14.40
2015,07,05,03,23,14.40
2015,07,05,03,24,14.40
2015,07,05,03,25,14.40
2015,07,05,03,26,14.40
2015,07,05,03,27,14.30
2015,07,05,03,28,14.30
2015,07,05,03,29,14.30
2015,07,05,03,30,14.30
2015,07,05,03,31,14.30
2015,07,05,03,32,14.20
2015,07,05,03,33,14.20
2015,07,05,03,34,14.20
2015,07,05,03,35,14.20
2015,07,05,03,36,14.20
2015,07,05,03,37,14.20
2015,07,05,03,38,14.10
2015,07,05,03,39,14.10
2015,07,05,03,40,14.00
2015,07,05,03,41,13.90
2015,07,05,03,42,13.90
2015,07,05,03,43,13.80
2015,07,05,03,44,13.80
2015,07,05,03,45,13.70
2015,07,05,03,46,13.70
2015,07,05,03,47,13.70
2015,07,05,03,48,13.70
2015,07,05,03,49,13.70
2015,07,05,03,50,13.70
2015,07,05,03,51,13.70
2015,07,05,03,52,13.70
2015,07,05,03,53,13.70
2015,07,05,03,54,13.70
2015,07,05,03,55,13.70
2015,07,05,03,56,13.70
2015,07,05,03,57,13.70
2015,07,05,03,58,13.70
2015,07,05,03,59,13.70
2015,07,05,04,00,13.70
2015,07,05,04,01,13.70
2015,07,05,04,02,13.70
2015,07,05,04,03,13.70
2015,07,05,04,04,13.70
2015,07,05,04,05,13.70
2015,07,05,04,06,13.70
2015,07,05,04,07,13.70
2015,07,05,04,08,13.70
2015,07,05,04,09,13.70
2015,07,05,04,10,13.70
2015,07,05,04,11,13.70
2015,07,05,04,12,13.70
2015,07,05,04,13,13.70
2015,07,05,04,14,13.80
2015,07,05,04,15,13.80
2015,07,05,04,16,13.80
2015,07,05,04,17,13.80
2015,07,05,04,18,13.80
2015,07,05,04,19,13.80
2015,07,05,04,20,13.90
2015,07,05,04,21,13.90
2015,07,05,04,22,13.90
2015,07,05,04,23,13.90
2015,07,05,04,24,13.90
2015,07,05,04,25,13.90
2015,07,05,04,26,13.90
2015,07,05,04,27,13.90
2015,07,05,04,28,13.90
2015,07,05,04,29,13.90
2015,07,05,04,30,14.00
2015,07,05,04,31,14.00
2015,07,05,04,32,14.00
2015,07,05,04,33,14.10
2015,07,05,04,34,14.10
2015,07,05,04,35,14.20
2015,07,05,04,36,14.20
2015,07,05,04,37,14.20
2015,07,05,04,38,14.20
2015,07,05,04,39,14.20
2015,07,05,04,40,14.20
2015,07,05,04,41,14.20
2015,07,05,04,42,14.20
2015,07,05,04,43,14.20
2015,07,05,04,44,14.20
2015,07,05,04,45,14.20
2015,07,05,04,46,14.20
2015,07,05,04,47,14.20
2015,07,05,04,48,14.20
2015,07,05,04,49,14.20
2015,07,05,04,50,14.20
2015,07,05,04,51,14.20
2015,07,05,04,52,14.20
2015,07,05,04,53,14.30
2015,07,05,04,54,14.30
2015,07,05,04,55,14.30
2015,07,05,04,56,14.30
2015,07,05,04,57,14.30
2015,07,05,04,58,14.30
2015,07,05,04,59,14.30
2015,07,05,05,00,14.30
2015,07,05,05,01,14.40
2015,07,05,05,02,14.40
2015,07,05,05,03,14.40
2015,07,05,05,04,14.40
2015,07,05,05,05,14.40
2015,07,05,05,06,14.40
2015,07,05,05,07,14.40
2015,07,05,05,08,14.40
2015,07,05,05,09,14.50
2015,07,05,05,10,14.50
2015,07,05,05,11,14.50
2015,07,05,05,12,14.50
2015,07,05,05,13,14.50
2015,07,05,05,14,14.50
2015,07,05,05,15,14.50
2015,07,05,05,16,14.50
2015,07,05,05,17,14.50
2015,07,05,05,18,14.50
2015,07,05,05,19,14.50
2015,07,05,05,20,14.60
2015,07,05,05,21,14.60
2015,07,05,05,22,14.60
2015,07,05,05,23,14.60
2015,07,05,05,24,14.60
2015,07,05,05,25,14.60
2015,07,05,05,26,14.70
2015,07,05,05,27,14.70
2015,07,05,05,28,14.70
2015,07,05,05,29,14.80
2015,07,05,05,30,14.80
2015,07,05,05,31,14.80
2015,07,05,05,32,14.80
2015,07,05,05,33,14.90
2015,07,05,05,34,14.90
2015,07,05,05,35,15.00
2015,07,05,05,36,15.00
2015,07,05,05,37,14.90
2015,07,05,05,38,14.90
2015,07,05,05,39,14.90
2015,07,05,05,40,14.90
2015,07,05,05,41,14.90
2015,07,05,05,42,14.90
2015,07,05,05,43,14.90
2015,07,05,05,44,14.90
2015,07,05,05,45,14.80
2015,07,05,05,46,14.80
2015,07,05,05,47,14.80
2015,07,05,05,48,14.80
2015,07,05,05,49,14.80
2015,07,05,05,50,14.80
2015,07,05,05,51,14.80
2015,07,05,05,52,14.80
2015,07,05,05,53,14.70
2015,07,05,05,54,14.70
2015,07,05,05,55,14.70
2015,07,05,05,56,14.70
2015,07,05,05,57,14.70
2015,07,05,05,58,14.70
2015,07,05,05,59,14.70
2015,07,05,06,00,14.70
2015,07,05,06,01,14.70
2015,07,05,06,02,14.70
2015,07,05,06,03,14.70
2015,07,05,06,04,14.70
2015,07,05,06,05,14.70
2015,07,05,06,06,14.70
2015,07,05,06,07,14.70
2015,07,05,06,08,14.70
2015,07,05,06,09,14.70
2015,07,05,06,10,14.70
2015,07,05,06,11,14.70
2015,07,05,06,12,14.70
2015,07,05,06,13,14.70
2015,07,05,06,14,14.70
2015,07,05,06,15,14.70
2015,07,05,06,16,14.70
2015,07,05,06,17,14.70
2015,07,05,06,18,14.70
2015,07,05,06,19,14.70
2015,07,05,06,20,14.80
2015,07,05,06,21,14.80
2015,07,05,06,22,14.80
2015,07,05,06,23,14.80
2015,07,05,06,24,14.80
2015,07,05,06,25,14.80
2015,07,05,06,26,14.90
2015,07,05,06,27,15.00
2015,07,05,06,28,15.00
2015,07,05,06,29,15.00
2015,07,05,06,30,15.00
2015,07,05,06,31,15.10
2015,07,05,06,32,15.10
2015,07,05,06,33,15.10
2015,07,05,06,34,15.20
2015,07,05,06,35,15.20
2015,07,05,06,36,15.30
2015,07,05,06,37,15.30
2015,07,05,06,38,15.30
2015,07,05,06,39,15.30
2015,07,05,06,40,15.30
2015,07,05,06,41,15.30
2015,07,05,06,42,15.30
2015,07,05,06,43,15.30
2015,07,05,06,44,15.30
2015,07,05,06,45,15.30
2015,07,05,06,46,15.30
2015,07,05,06,47,15.30
2015,07,05,06,48,15.40
2015,07,05,06,49,15.40
2015,07,05,06,50,15.40
2015,07,05,06,51,15.50
2015,07,05,06,52,15.50
2015,07,05,06,53,15.50
2015,07,05,06,54,15.60
2015,07,05,06,55,15.60
2015,07,05,06,56,15.60
2015,07,05,06,57,15.70
2015,07,05,06,58,15.70
2015,07,05,06,59,15.70
2015,07,05,07,00,15.80
2015,07,05,07,01,15.80
2015,07,05,07,02,15.80
2015,07,05,07,03,15.90
2015,07,05,07,04,15.90
2015,07,05,07,05,16.00
2015,07,05,07,06,16.10
2015,07,05,07,07,16.10
2015,07,05,07,08,16.10
2015,07,05,07,09,16.20
2015,07,05,07,10,16.20
2015,07,05,07,11,16.30
2015,07,05,07,12,16.30
2015,07,05,07,13,16.30
2015,07,05,07,14,16.40
2015,07,05,07,15,16.40
2015,07,05,07,16,16.50
2015,07,05,07,17,16.60
2015,07,05,07,18,16.70
2015,07,05,07,19,16.70
2015,07,05,07,20,16.70
2015,07,05,07,21,16.80
2015,07,05,07,22,16.80
2015,07,05,07,23,16.90
2015,07,05,07,24,16.90
2015,07,05,07,25,17.00
2015,07,05,07,26,17.00
2015,07,05,07,27,17.00
2015,07,05,07,28,17.10
2015,07,05,07,29,17.20
2015,07,05,07,30,17.30
2015,07,05,07,31,17.30
2015,07,05,07,32,17.30
2015,07,05,07,33,17.40
2015,07,05,07,34,17.40
2015,07,05,07,35,17.50
2015,07,05,07,36,17.50
2015,07,05,07,37,17.60
2015,07,05,07,38,17.80
2015,07,05,07,39,17.80
2015,07,05,07,40,17.90
2015,07,05,07,41,18.00
2015,07,05,07,42,18.20
2015,07,05,07,43,18.20
2015,07,05,07,44,18.40
2015,07,05,07,45,18.40
2015,07,05,07,46,18.50
2015,07,05,07,47,18.50
2015,07,05,07,48,18.60
2015,07,05,07,49,18.70
2015,07,05,07,50,18.80
2015,07,05,07,51,18.90
2015,07,05,07,52,18.90
2015,07,05,07,53,19.00
2015,07,05,07,54,19.10
2015,07,05,07,55,19.30
2015,07,05,07,56,19.40
2015,07,05,07,57,19.40
2015,07,05,07,58,19.50
2015,07,05,07,59,19.70
2015,07,05,08,00,19.80
2015,07,05,08,01,20.00
2015,07,05,08,02,20.20
2015,07,05,08,03,20.30
2015,07,05,08,04,20.40
2015,07,05,08,05,20.50
2015,07,05,08,06,20.70
2015,07,05,08,07,20.80
2015,07,05,08,08,21.00
2015,07,05,08,09,21.10
2015,07,05,08,10,21.20
2015,07,05,08,11,21.30
2015,07,05,08,12,21.40
2015,07,05,08,13,21.40
2015,07,05,08,14,21.50
2015,07,05,08,15,21.60
2015,07,05,08,16,21.60
2015,07,05,08,17,21.30
2015,07,05,08,18,21.30
2015,07,05,08,19,21.30
2015,07,05,08,20,21.30
2015,07,05,08,21,21.30
2015,07,05,08,22,21.50
2015,07,05,08,23,21.60
2015,07,05,08,24,21.70
2015,07,05,08,25,21.80
2015,07,05,08,26,21.90
2015,07,05,08,27,22.00
2015,07,05,08,28,22.10
2015,07,05,08,29,22.20
2015,07,05,08,30,22.20
2015,07,05,08,31,22.30
2015,07,05,08,32,22.40
2015,07,05,08,33,22.50
2015,07,05,08,34,22.60
2015,07,05,08,35,22.70
2015,07,05,08,36,22.70
2015,07,05,08,37,22.80
2015,07,05,08,38,22.90
2015,07,05,08,39,23.10
2015,07,05,08,40,23.20
2015,07,05,08,41,23.30
2015,07,05,08,42,23.30
2015,07,05,08,43,23.30
2015,07,05,08,44,23.30
2015,07,05,08,45,23.30
2015,07,05,08,46,23.30
2015,07,05,08,47,23.30
2015,07,05,08,48,23.30
2015,07,05,08,49,23.30
2015,07,05,08,50,23.30
2015,07,05,08,51,23.30
2015,07,05,08,52,23.30
2015,07,05,08,53,23.30
2015,07,05,08,54,23.30
2015,07,05,08,55,23.30
2015,07,05,08,56,23.30
2015,07,05,08,57,23.30
2015,07,05,08,58,23.30
2015,07,05,08,59,23.30
2015,07,05,09,00,23.40
2015,07,05,09,01,23.50
2015,07,05,09,02,23.60
2015,07,05,09,03,23.70
2015,07,05,09,04,23.70
2015,07,05,09,05,23.70
2015,07,05,09,06,23.70
2015,07,05,09,07,23.70
2015,07,05,09,08,23.70
2015,07,05,09,09,23.70
2015,07,05,09,10,23.80
2015,07,05,09,11,23.80
2015,07,05,09,12,23.80
2015,07,05,09,13,23.70
2015,07,05,09,14,23.70
2015,07,05,09,15,23.70
2015,07,05,09,16,23.70
2015,07,05,09,17,23.70
2015,07,05,09,18,23.70
2015,07,05,09,19,23.70
2015,07,05,09,20,23.70
2015,07,05,09,21,23.70
2015,07,05,09,22,23.70
2015,07,05,09,23,23.70
2015,07,05,09,24,23.70
2015,07,05,09,25,23.70
2015,07,05,09,26,23.70
2015,07,05,09,27,23.70
2015,07,05,09,28,23.80
2015,07,05,09,29,23.80
2015,07,05,09,30,23.80
2015,07,05,09,31,23.80
2015,07,05,09,32,23.80
2015,07,05,09,33,23.80
2015,07,05,09,34,23.80
2015,07,05,09,35,23.80
2015,07,05,09,36,23.80
2015,07,05,09,37,23.80
2015,07,05,09,38,23.80
2015,07,05,09,39,23.70
2015,07,05,09,40,23.70
2015,07,05,09,41,23.70
2015,07,05,09,42,23.70
2015,07,05,09,43,23.70
2015,07,05,09,44,23.70
2015,07,05,09,45,23.80
2015,07,05,09,46,23.80
2015,07,05,09,47,23.80
2015,07,05,09,48,23.80
2015,07,05,09,49,23.80
2015,07,05,09,50,23.90
2015,07,05,09,51,23.90
2015,07,05,09,52,23.90
2015,07,05,09,53,23.90
2015,07,05,09,54,23.90
2015,07,05,09,55,23.90
2015,07,05,09,56,24.00
2015,07,05,09,57,24.10
2015,07,05,09,58,24.10
2015,07,05,09,59,24.10
2015,07,05,10,00,24.10
2015,07,05,10,01,24.10
2015,07,05,10,02,24.10
2015,07,05,10,03,24.10
2015,07,05,10,04,24.20
2015,07,05,10,05,24.30
2015,07,05,10,06,24.30
2015,07,05,10,07,24.40
2015,07,05,10,08,24.40
2015,07,05,10,09,24.40
2015,07,05,10,10,24.50
2015,07,05,10,11,24.50
2015,07,05,10,12,24.50
2015,07,05,10,13,24.50
2015,07,05,10,14,24.50
2015,07,05,10,15,24.40
2015,07,05,10,16,24.50
2015,07,05,10,17,24.50
2015,07,05,10,18,24.50
2015,07,05,10,19,24.50
2015,07,05,10,20,24.50
2015,07,05,10,21,24.40
2015,07,05,10,22,24.50
2015,07,05,10,23,24.50
2015,07,05,10,24,24.60
2015,07,05,10,25,24.60
2015,07,05,10,26,24.60
2015,07,05,10,27,24.60
2015,07,05,10,28,24.50
2015,07,05,10,29,24.50
2015,07,05,10,30,24.50
2015,07,05,10,31,24.50
2015,07,05,10,32,24.60
2015,07,05,10,33,24.60
2015,07,05,10,34,24.60
2015,07,05,10,35,24.60
2015,07,05,10,36,24.60
2015,07,05,10,37,24.60
2015,07,05,10,38,24.60
2015,07,05,10,39,24.70
2015,07,05,10,40,24.70
2015,07,05,10,41,24.80
2015,07,05,10,42,24.80
2015,07,05,10,43,24.80
2015,07,05,10,44,24.80
2015,07,05,10,45,24.90
2015,07,05,10,46,24.90
2015,07,05,10,47,24.90
2015,07,05,10,48,24.90
2015,07,05,10,49,24.90
2015,07,05,10,50,24.90
2015,07,05,10,51,24.90
2015,07,05,10,52,24.90
2015,07,05,10,53,25.00
2015,07,05,10,54,25.00
2015,07,05,10,55,25.10
2015,07,05,10,56,25.10
2015,07,05,10,57,25.10
2015,07,05,10,58,25.10
2015,07,05,10,59,25.10
2015,07,05,11,00,25.10
2015,07,05,11,01,25.10
2015,07,05,11,02,25.10
2015,07,05,11,03,25.10
2015,07,05,11,04,25.10
2015,07,05,11,05,25.20
2015,07,05,11,06,25.20
2015,07,05,11,07,25.10
2015,07,05,11,08,25.10
2015,07,05,11,09,25.00
2015,07,05,11,10,25.00
2015,07,05,11,11,25.00
2015,07,05,11,12,25.00
2015,07,05,11,13,25.10
2015,07,05,11,14,25.10
2015,07,05,11,15,25.00
2015,07,05,11,16,25.00
2015,07,05,11,17,25.00
2015,07,05,11,18,25.00
2015,07,05,11,19,25.00
2015,07,05,11,20,25.00
2015,07,05,11,21,25.00
2015,07,05,11,22,25.00
2015,07,05,11,23,25.00
2015,07,05,11,24,25.00
2015,07,05,11,25,25.10
2015,07,05,11,26,25.10
2015,07,05,11,27,25.10
2015,07,05,11,28,25.10
2015,07,05,11,29,25.10
2015,07,05,11,30,25.20
2015,07,05,11,31,25.20
2015,07,05,11,32,25.20
2015,07,05,11,33,25.20
2015,07,05,11,34,25.20
2015,07,05,11,35,25.20
2015,07,05,11,36,25.30
2015,07,05,11,37,25.30
2015,07,05,11,38,25.20
2015,07,05,11,39,25.20
2015,07,05,11,40,25.20
2015,07,05,11,41,25.20
2015,07,05,11,42,25.20
2015,07,05,11,43,25.10
2015,07,05,11,44,25.10
2015,07,05,11,45,25.10
2015,07,05,11,46,25.00
2015,07,05,11,47,25.10
2015,07,05,11,48,25.00
2015,07,05,11,49,25.00
2015,07,05,11,50,24.90
2015,07,05,11,51,24.90
2015,07,05,11,52,24.80
2015,07,05,11,53,24.80
2015,07,05,11,54,24.80
2015,07,05,11,55,24.70
2015,07,05,11,56,24.70
2015,07,05,11,57,24.60
2015,07,05,11,58,24.60
2015,07,05,11,59,24.60
2015,07,05,12,00,24.60
2015,07,05,12,01,24.50
2015,07,05,12,02,24.50
2015,07,05,12,03,24.50
2015,07,05,12,04,24.50
2015,07,05,12,05,24.40
2015,07,05,12,06,24.40
2015,07,05,12,07,24.40
2015,07,05,12,08,24.40
2015,07,05,12,09,24.40
2015,07,05,12,10,24.40
2015,07,05,12,11,24.30
2015,07,05,12,12,24.30
2015,07,05,12,13,24.30
2015,07,05,12,14,24.30
2015,07,05,12,15,24.20
2015,07,05,12,16,24.20
2015,07,05,12,17,24.20
2015,07,05,12,18,24.10
2015,07,05,12,19,24.10
2015,07,05,12,20,24.10
2015,07,05,12,21,24.10
2015,07,05,12,22,24.10
2015,07,05,12,23,24.10
2015,07,05,12,24,24.10
2015,07,05,12,25,24.10
2015,07,05,12,26,24.10
2015,07,05,12,27,24.10
2015,07,05,12,28,24.10
2015,07,05,12,29,24.10
2015,07,05,12,30,24.10
2015,07,05,12,31,24.20
2015,07,05,12,32,24.20
2015,07,05,12,33,24.20
2015,07,05,12,34,24.20
2015,07,05,12,35,24.20
2015,07,05,12,36,24.20
2015,07,05,12,37,24.20
2015,07,05,12,38,24.30
2015,07,05,12,39,24.30
2015,07,05,12,40,24.30
2015,07,05,12,41,24.40
2015,07,05,12,42,24.40
2015,07,05,12,43,24.50
2015,07,05,12,44,24.50
2015,07,05,12,45,24.60
2015,07,05,12,46,24.60
2015,07,05,12,47,24.60
2015,07,05,12,48,24.70
2015,07,05,12,49,24.70
2015,07,05,12,50,24.70
2015,07,05,12,51,24.70
2015,07,05,12,52,24.70
2015,07,05,12,53,24.70
2015,07,05,12,54,24.70
2015,07,05,12,55,24.70
2015,07,05,12,56,24.70
2015,07,05,12,57,24.70
2015,07,05,12,58,24.70
2015,07,05,12,59,24.70
2015,07,05,13,00,24.70
2015,07,05,13,01,24.70
2015,07,05,13,02,24.60
2015,07,05,13,03,24.70
2015,07,05,13,04,24.70
2015,07,05,13,05,24.70
2015,07,05,13,06,24.70
2015,07,05,13,07,24.70
2015,07,05,13,08,24.70
2015,07,05,13,09,24.60
2015,07,05,13,10,24.60
2015,07,05,13,11,24.60
2015,07,05,13,12,24.60
2015,07,05,13,13,24.70
2015,07,05,13,14,24.60
2015,07,05,13,15,24.60
2015,07,05,13,16,24.60
2015,07,05,13,17,24.70
2015,07,05,13,18,24.70
2015,07,05,13,19,24.70
2015,07,05,13,20,24.80
2015,07,05,13,21,24.80
2015,07,05,13,22,24.80
2015,07,05,13,23,24.80
2015,07,05,13,24,24.80
2015,07,05,13,25,24.80
2015,07,05,13,26,24.80
2015,07,05,13,27,24.80
2015,07,05,13,28,24.80
2015,07,05,13,29,24.80
2015,07,05,13,30,24.80
2015,07,05,13,31,24.80
2015,07,05,13,32,24.80
2015,07,05,13,33,24.90
2015,07,05,13,34,24.90
2015,07,05,13,35,24.90
2015,07,05,13,36,24.90
2015,07,05,13,37,24.90
2015,07,05,13,38,24.90
2015,07,05,13,39,24.90
2015,07,05,13,40,24.90
2015,07,05,13,41,24.90
2015,07,05,13,42,24.90
2015,07,05,13,43,24.90
2015,07,05,13,44,24.90
2015,07,05,13,45,24.90
2015,07,05,13,46,24.90
2015,07,05,13,47,24.90
2015,07,05,13,48,24.90
2015,07,05,13,49,25.00
2015,07,05,13,50,25.00
2015,07,05,13,51,25.00
2015,07,05,13,52,25.10
2015,07,05,13,53,25.10
2015,07,05,13,54,25.10
2015,07,05,13,55,25.10
2015,07,05,13,56,25.10
2015,07,05,13,57,25.10
2015,07,05,13,58,25.10
2015,07,05,13,59,25.10
2015,07,05,14,00,25.10
2015,07,05,14,01,25.20
2015,07,05,14,02,25.20
2015,07,05,14,03,25.20
2015,07,05,14,04,25.30
2015,07,05,14,05,25.30
2015,07,05,14,06,25.30
2015,07,05,14,07,25.40
2015,07,05,14,08,25.40
2015,07,05,14,09,25.50
2015,07,05,14,10,25.50
2015,07,05,14,11,25.60
2015,07,05,14,12,25.60
2015,07,05,14,13,25.70
2015,07,05,14,14,25.80
2015,07,05,14,15,25.80
2015,07,05,14,16,25.90
2015,07,05,14,17,25.90
2015,07,05,14,18,26.00
2015,07,05,14,19,26.00
2015,07,05,14,20,26.00
2015,07,05,14,21,26.10
2015,07,05,14,22,26.10
2015,07,05,14,23,26.10
2015,07,05,14,24,26.10
2015,07,05,14,25,26.10
2015,07,05,14,26,26.10
2015,07,05,14,27,26.20
2015,07,05,14,28,26.20
2015,07,05,14,29,26.20
2015,07,05,14,30,26.30
2015,07,05,14,31,26.30
2015,07,05,14,32,26.30
2015,07,05,14,33,26.30
2015,07,05,14,34,26.30
2015,07,05,14,35,26.40
2015,07,05,14,36,26.40
2015,07,05,14,37,26.50
2015,07,05,14,38,26.60
2015,07,05,14,39,26.60
2015,07,05,14,40,26.60
2015,07,05,14,41,26.60
2015,07,05,14,42,26.60
2015,07,05,14,43,26.60
2015,07,05,14,44,26.60
2015,07,05,14,45,26.60
2015,07,05,14,46,26.60
2015,07,05,14,47,26.60
2015,07,05,14,48,26.60
2015,07,05,14,49,26.60
2015,07,05,14,50,26.60
2015,07,05,14,51,26.60
2015,07,05,14,52,26.60
2015,07,05,14,53,26.60
2015,07,05,14,54,26.60
2015,07,05,14,55,26.60
2015,07,05,14,56,26.60
2015,07,05,14,57,26.60
2015,07,05,14,58,26.60
2015,07,05,14,59,26.60
2015,07,05,15,00,26.60
2015,07,05,15,01,26.60
2015,07,05,15,02,26.60
2015,07,05,15,03,26.60
2015,07,05,15,04,26.60
2015,07,05,15,05,26.60
2015,07,05,15,06,26.60
2015,07,05,15,07,26.60
2015,07,05,15,08,26.60
2015,07,05,15,09,26.60
2015,07,05,15,10,26.60
2015,07,05,15,11,26.60
2015,07,05,15,12,26.60
2015,07,05,15,13,26.60
2015,07,05,15,14,26.60
2015,07,05,15,15,26.60
2015,07,05,15,16,26.60
2015,07,05,15,17,26.60
2015,07,05,15,18,26.60
2015,07,05,15,19,26.50
2015,07,05,15,20,26.40
2015,07,05,15,21,26.40
2015,07,05,15,22,26.40
2015,07,05,15,23,26.40
2015,07,05,15,24,26.40
2015,07,05,15,25,26.40
2015,07,05,15,26,26.40
2015,07,05,15,27,26.40
2015,07,05,15,28,26.40
2015,07,05,15,29,26.40
2015,07,05,15,30,26.40
2015,07,05,15,31,26.30
2015,07,05,15,32,26.20
2015,07,05,15,33,26.20
2015,07,05,15,34,26.20
2015,07,05,15,35,26.10
2015,07,05,15,36,26.10
2015,07,05,15,37,26.00
2015,07,05,15,38,26.00
2015,07,05,15,39,26.00
2015,07,05,15,40,25.90
2015,07,05,15,41,25.90
2015,07,05,15,42,25.80
2015,07,05,15,43,25.80
2015,07,05,15,44,25.80
2015,07,05,15,45,25.80
2015,07,05,15,46,25.70
2015,07,05,15,47,25.70
2015,07,05,15,48,25.70
2015,07,05,15,49,25.70
2015,07,05,15,50,25.70
2015,07,05,15,51,25.70
2015,07,05,15,52,25.70
2015,07,05,15,53,25.70
2015,07,05,15,54,25.70
2015,07,05,15,55,25.70
2015,07,05,15,56,25.70
2015,07,05,15,57,25.70
2015,07,05,15,58,25.70
2015,07,05,15,59,25.70
2015,07,05,16,00,25.70
2015,07,05,16,01,25.70
2015,07,05,16,02,25.60
2015,07,05,16,03,25.60
2015,07,05,16,04,25.60
2015,07,05,16,05,25.60
2015,07,05,16,06,25.60
2015,07,05,16,07,25.60
2015,07,05,16,08,25.50
2015,07,05,16,09,25.50
2015,07,05,16,10,25.50
2015,07,05,16,11,25.50
2015,07,05,16,12,25.40
2015,07,05,16,13,25.40
2015,07,05,16,14,25.30
2015,07,05,16,15,25.20
2015,07,05,16,16,25.20
2015,07,05,16,17,25.20
2015,07,05,16,18,25.20
2015,07,05,16,19,25.20
2015,07,05,16,20,25.20
2015,07,05,16,21,25.20
2015,07,05,16,22,25.20
2015,07,05,16,23,25.20
2015,07,05,16,24,25.20
2015,07,05,16,25,25.20
2015,07,05,16,26,25.20
2015,07,05,16,27,25.20
2015,07,05,16,28,25.20
2015,07,05,16,29,25.20
2015,07,05,16,30,25.20
2015,07,05,16,31,25.20
2015,07,05,16,32,25.20
2015,07,05,16,33,25.20
2015,07,05,16,34,25.30
2015,07,05,16,35,25.30
2015,07,05,16,36,25.30
2015,07,05,16,37,25.30
2015,07,05,16,38,25.20
2015,07,05,16,39,25.20
2015,07,05,16,40,25.20
2015,07,05,16,41,25.20
2015,07,05,16,42,25.10
2015,07,05,16,43,25.10
2015,07,05,16,44,25.10
2015,07,05,16,45,25.10
2015,07,05,16,46,25.00
2015,07,05,16,47,25.00
2015,07,05,16,48,25.00
2015,07,05,16,49,25.00
2015,07,05,16,50,25.00
2015,07,05,16,51,24.90
2015,07,05,16,52,24.90
2015,07,05,16,53,24.90
2015,07,05,16,54,24.90
2015,07,05,16,55,24.80
2015,07,05,16,56,24.80
2015,07,05,16,57,24.80
2015,07,05,16,58,24.70
2015,07,05,16,59,24.70
2015,07,05,17,00,24.70
2015,07,05,17,01,24.70
2015,07,05,17,02,24.70
2015,07,05,17,03,24.70
2015,07,05,17,04,24.70
2015,07,05,17,05,24.70
2015,07,05,17,06,24.80
2015,07,05,17,07,24.80
2015,07,05,17,08,24.80
2015,07,05,17,09,24.80
2015,07,05,17,10,24.90
2015,07,05,17,11,24.90
2015,07,05,17,12,24.90
2015,07,05,17,13,25.00
2015,07,05,17,14,25.00
2015,07,05,17,15,25.00
2015,07,05,17,16,24.90
2015,07,05,17,17,24.90
2015,07,05,17,18,24.90
2015,07,05,17,19,24.90